Location: ?????
(38.2579°N, 22.9711°E)
Time: 22:41:18
(UTC+00:00)

Cosmos 1825 Rocket - Pass Details

Date: 13 December 2025
Orbit: 596 x 624 km, 82.5° (Epoch: 14 January)

Event Time Altitude Azimuth Distance (km) Brightness Sun altitude
Rises 16:14:56 0° 349° (NNW) 2,868 6.9 -12.7°
Reaches altitude 10° 16:17:10 10° 346° (NNW) 1,956 6.1 -13.1°
Maximum altitude 16:21:26 63° 266° (W) 675 4.0 -13.9°
Drops below altitude 10° 16:25:39 10° 185° (S) 1,929 6.4 -14.7°
Sets 16:27:51 0° 182° (S) 2,824 7.2 -15.1°
